Houston Intercontinental, TX

4:15 AM CST on November 20, 2017 (GMT -0600)
George Bush Intercontinental-Houston Airport

Weather History for KIAH - November, 2013

Change the Weather History Date:

Saturday, November 23, 2013

  Actual Average Record
Temperature  
Mean Temperature 47 °F -  
Max Temperature 50 °F 67 °F 82 °F (2001)
Min Temperature 44 °F 47 °F 35 °F (2015)
Degree Days  
Heating Degree Days 18    
Moisture  
Dew Point 44 °F    
Average Humidity 90    
Maximum Humidity 100    
Minimum Humidity 69    
Precipitation  
Precipitation 0.24 in - - ()
Sea Level Pressure  
Sea Level Pressure 30.34 in    
Wind  
Wind Speed 14 mph (North)    
Max Wind Speed 20 mph    
Max Gust Speed 26 mph    
Visibility 8 miles    
Events Rain    
Averages and records for this station are not official NWS values.
T = Trace of Precipitation, MM = Missing Value Source: NWS Daily Summary

Daily Weather History Graph

Daily Weather History Graph

Search for Another Location

Airport or City:

Trip Planner

Search our weather history database for the weather conditions in past years. The results will help you decide how hot, cold, wet, or windy it might be!

Date:

Astronomy

Nov. 23, 2013 Rise Set
Actual Time 6:53 AM CST 5:22 PM CST
Civil Twilight 6:27 AM CST 5:47 PM CST
Nautical Twilight 5:58 AM CST 6:17 PM CST
Astronomical Twilight 5:29 AM CST 6:45 PM CST
Moon 10:41 PM CST (11/23) 11:18 AM CST (11/23)
Length of Visible Light 11h 20m
Length of Day
10h 28m
Waning Gibbous, 69% of the Moon is Illuminated
Nov 23
Waning Gibbous
Nov 25
Last Quarter
Dec 2
New
Dec 9
First Quarter
Dec 17
Full

Hourly Weather History & Observations

Time (CST) Temp. Windchill Dew Point Humidity Pressure Visibility Wind Dir Wind Speed Gust Speed Precip Events Conditions
12:53 AM 44.1 °F 38.6 °F 42.1 °F 93% 30.29 in 10.0 mi NNW 10.4 mph - N/A   Overcast
1:53 AM 44.1 °F 37.7 °F 41.0 °F 89% 30.29 in 10.0 mi NNW 12.7 mph - N/A   Overcast
2:53 AM 44.1 °F 37.7 °F 42.1 °F 93% 30.28 in 10.0 mi NNW 12.7 mph - N/A   Overcast
3:53 AM 43.0 °F 35.7 °F 41.0 °F 93% 30.28 in 10.0 mi NNW 15.0 mph 23.0 mph N/A   Overcast
4:53 AM 43.0 °F 36.8 °F 42.1 °F 97% 30.29 in 10.0 mi NNW 11.5 mph - N/A   Overcast
5:53 AM 44.1 °F 37.4 °F 42.1 °F 93% 30.30 in 10.0 mi North 13.8 mph - N/A   Overcast
6:53 AM 44.1 °F 37.1 °F 43.0 °F 96% 30.31 in 5.0 mi North 15.0 mph - N/A   Overcast
7:03 AM 44.6 °F 38.8 °F 44.6 °F 100% 30.31 in 2.0 mi North 11.5 mph - N/A   Overcast
7:53 AM 45.0 °F 38.5 °F 44.1 °F 97% 30.33 in 2.0 mi North 13.8 mph - N/A   Overcast
8:53 AM 46.0 °F 39.9 °F 45.0 °F 96% 30.35 in 2.0 mi North 13.8 mph - 0.02 in Rain Heavy Rain
9:37 AM 48.2 °F - 46.4 °F 93% 30.35 in 7.0 mi North 15.0 mph - 0.11 in Rain Light Rain
9:53 AM 48.0 °F - 46.9 °F 96% 30.35 in 7.0 mi North 15.0 mph - 0.11 in Rain Light Rain
10:49 AM 48.2 °F - 46.4 °F 93% 30.36 in 5.0 mi North 11.5 mph - 0.01 in Rain Light Rain
10:53 AM 48.9 °F - 46.9 °F 93% 30.37 in 4.0 mi North 11.5 mph - 0.01 in Rain Light Rain
11:17 AM 48.2 °F - 46.4 °F 93% 30.36 in 6.0 mi North 17.3 mph - 0.01 in Rain Light Rain
11:36 AM 48.2 °F - 46.4 °F 93% 30.35 in 6.0 mi North 12.7 mph - 0.01 in Rain Light Rain
11:53 AM 48.0 °F - 46.0 °F 93% 30.35 in 4.0 mi North 15.0 mph - 0.05 in Rain Heavy Rain
12:07 PM 48.2 °F - 46.4 °F 93% 30.34 in 2.5 mi North 15.0 mph 20.7 mph 0.04 in Rain Light Rain
12:23 PM 48.2 °F - 46.4 °F 93% 30.33 in 2.0 mi North 13.8 mph - 0.15 in Rain Heavy Rain
12:33 PM 48.2 °F - 46.4 °F 93% 30.33 in 4.0 mi North 13.8 mph - 0.21 in Rain Heavy Rain
12:39 PM 48.2 °F - 46.4 °F 93% 30.33 in 5.0 mi North 15.0 mph - 0.21 in Rain Light Rain
12:53 PM 48.0 °F - 46.9 °F 96% 30.33 in 8.0 mi North 16.1 mph 21.9 mph 0.22 in Rain Light Rain
1:14 PM 48.2 °F - 46.4 °F 93% 30.32 in 10.0 mi North 13.8 mph - 0.00 in   Overcast
1:34 PM 48.2 °F - 46.4 °F 93% 30.31 in 10.0 mi North 17.3 mph - 0.00 in   Overcast
1:53 PM 48.0 °F - 46.0 °F 93% 30.30 in 10.0 mi North 15.0 mph 23.0 mph 0.00 in   Overcast
2:39 PM 48.2 °F - 46.4 °F 93% 30.30 in 10.0 mi North 15.0 mph - 0.00 in Rain Light Rain
2:49 PM 48.2 °F - 46.4 °F 93% 30.31 in 10.0 mi NNE 15.0 mph - 0.00 in   Overcast
2:53 PM 48.9 °F - 46.9 °F 93% 30.31 in 10.0 mi NNE 18.4 mph 23.0 mph 0.00 in   Overcast
3:53 PM 48.9 °F - 46.0 °F 90% 30.32 in 10.0 mi NNE 17.3 mph 21.9 mph N/A   Overcast
4:21 PM 48.2 °F - 44.6 °F 87% 30.33 in 10.0 mi NNE 17.3 mph 24.2 mph N/A   Overcast
4:53 PM 48.9 °F - 45.0 °F 86% 30.33 in 10.0 mi North 12.7 mph - N/A   Overcast
5:53 PM 48.0 °F - 44.1 °F 86% 30.34 in 10.0 mi NNE 19.6 mph 25.3 mph N/A   Overcast
6:53 PM 48.0 °F - 44.1 °F 86% 30.35 in 10.0 mi NNE 13.8 mph - N/A   Overcast
7:53 PM 46.9 °F - 44.1 °F 90% 30.37 in 10.0 mi NNE 18.4 mph 23.0 mph N/A   Overcast
8:14 PM 46.4 °F 39.2 °F 42.8 °F 87% 30.37 in 10.0 mi NNE 18.4 mph 26.5 mph N/A   Overcast
8:53 PM 46.9 °F - 43.0 °F 86% 30.40 in 10.0 mi NNE 15.0 mph - N/A   Overcast
9:44 PM 46.4 °F 39.5 °F 42.8 °F 87% 30.38 in 10.0 mi NNE 17.3 mph - N/A   Overcast
9:53 PM 46.9 °F - 42.1 °F 83% 30.39 in 10.0 mi NNE 15.0 mph 25.3 mph N/A   Overcast
10:53 PM 46.0 °F 38.8 °F 39.9 °F 79% 30.39 in 10.0 mi NNE 18.4 mph - N/A   Overcast
11:53 PM 46.0 °F 39.9 °F 39.0 °F 76% 30.38 in 10.0 mi NNE 13.8 mph - N/A   Overcast